Regional Weather Roundup
Issued by NWS Albany, NY

Home | Current Version | Previous Version | Text Only | Print | Product List | Glossary On
Versions: 1 2 3 4 5 6 7 8 9 10 11 12 13 14 15 16 17 18 19 20 21 22 23 24 25 26 27 28 29 30 31 32 33 34 35 36 37 38 39 40 41 42 43 44 45 46 47 48 49 50
000
ASUS41 KALY 291010
RWRALY

NEW YORK STATE HOURLY WEATHER ROUNDUP
NATIONAL WEATHER SERVICE ALBANY NY
600 AM EDT TUE JUL 29 2014

NOTE: "FAIR" INDICATES FEW OR NO CLOUDS BELOW 12,000 FEET WITH NO
SIGNIFICANT WEATHER AND/OR NO OBSTRUCTIONS TO VISIBILITY.

NYZ032-033-038>043-046>054-057>066-NYZ062>081-291100-
EAST


CITY           SKY/WX    TMP DP  RH WIND       PRES   REMARKS
ALBANY         MOCLDY    59  53  80 W10       29.78R
GLENS FALLS    PTCLDY    57  54  89 NW7       29.76R
POUGHKEEPSIE   MOCLDY    61  56  83 W5        29.78R
NEWBURGH       PTCLDY    57  55  94 W12       29.81R
MONTGOMERY     PTCLDY    58  53  84 W6        29.81R
WHITE PLAINS   PTCLDY    61  53  75 NW6       29.78R
ISLIP          PTCLDY    63  56  78 W7        29.77R
NEW YORK CITY  PTCLDY    65  54  67 NW8       29.79R
CENTRAL PARK   CLEAR     64  53  67 W3        29.82R
$$

NYZ005>009-017-018-044>046-055-056-291100-
CENTRAL


CITY           SKY/WX    TMP DP  RH WIND       PRES   REMARKS
FULTON         CLOUDY    54  52  93 CALM      29.83R
SYRACUSE       MOCLDY    54  54 100 W3        29.83R
ROME           CLEAR     52  50  93 CALM      29.83R
ELMIRA         CLOUDY    56  53  90 SW5       29.87R
BINGHAMTON     MOCLDY    53  52  96 W3        29.86R
MONTICELLO     PTCLDY    54  52  94 W8        29.84R
$$

NYZ026>034-041>043-291100-
NORTH


CITY           SKY/WX    TMP DP  RH WIND       PRES   REMARKS
WATERTOWN      CLOUDY    52  48  86 CALM      29.82R
FORT DRUM      NOT AVBL
MASSENA        CLEAR     53  50  89 SW5       29.79R
SARANAC LAKE   FOG       46  45  96 CALM      29.77S VSB 1/4
PLATTSBURGH    PTCLDY    55  51  86 NW6       29.73R
$$

NYZ001>004-010>016-019>021-291100-
WEST


CITY           SKY/WX    TMP DP  RH WIND       PRES   REMARKS
NIAGARA FALLS  CLOUDY    57  53  86 W6        29.88R
BUFFALO        CLOUDY    56  52  86 W3        29.89R
DUNKIRK        CLOUDY    57  53  86 CALM      29.90S
JAMESTOWN      CLOUDY    54  50  87 W6        29.92R
WELLSVILLE     MOCLDY    51  47  86 W5        29.92R
ROCHESTER      CLOUDY    55  53  93 W5        29.86S
PENN YAN       MOCLDY    57  53  86 VRB5      29.86S
$$

             KEY
       WCI = WIND CHILL INDEX
       VSB = VISIBILITY
       HX  = HEAT INDEX
$$


USA.gov is the U.S. government's official web portal to all federal, state and local government web resources and services.